When you browse on this site, cookies collect data to enhance your experience and personalize the content and advertising you see.
Visit our Privacy Policy to learn more. By continuing to use the site, you agree to this use of cookies and data.
  • In Lithuania
  • List of Countries
  • For 7 days
  • Water Temperature
  • Weather Map
  • Weather Widgets
  • user-avatar
    Login

    Hourly Weather Deviche

    Today, 23 January, Thursday

    Time Temperature Precipitation Wind Pressure Humidity
    00:00 -6°C° 0.1 mm 6 mps 734 mmHg 77%
    01:00 -6°C° 0.1 mm 6 mps 735 mmHg 76%
    02:00 -6°C° 0 mm 6 mps 735 mmHg 75%
    03:00 -6°C° 0 mm 6 mps 736 mmHg 72%
    04:00 -8°C° 0 mm 6 mps 736 mmHg 70%
    05:00 -8°C° 0 mm 6 mps 736 mmHg 67%
    06:00 -8°C° 0 mm 6 mps 737 mmHg 64%
    07:00 -8°C° 0 mm 6 mps 737 mmHg 61%
    08:00 -8°C° 0 mm 6 mps 738 mmHg 58%
    09:00 -8°C° 0 mm 6 mps 738 mmHg 56%
    10:00 -8°C° 0 mm 6 mps 739 mmHg 54%
    11:00 -6°C° 0 mm 6 mps 739 mmHg 52%
    12:00 -6°C° 0 mm 6 mps 739 mmHg 55%
    13:00 -6°C° 0 mm 6 mps 740 mmHg 57%
    14:00 -6°C° 0 mm 6 mps 740 mmHg 60%
    15:00 -6°C° 0 mm 5 mps 740 mmHg 62%
    16:00 -6°C° 0 mm 5 mps 740 mmHg 63%
    17:00 -5°C° 0 mm 4 mps 740 mmHg 65%
    18:00 -5°C° 0 mm 4 mps 740 mmHg 66%
    19:00 -5°C° 0 mm 3 mps 740 mmHg 67%
    20:00 -5°C° 0 mm 3 mps 740 mmHg 68%
    21:00 -5°C° 0 mm 3 mps 740 mmHg 70%
    22:00 -5°C° 0 mm 3 mps 740 mmHg 73%
    23:00 -5°C° 0 mm 3 mps 739 mmHg 76%

    Tomorrow, 24 January, Friday

    Time Temperature Precipitation Wind Pressure Humidity
    00:00 -5°C° 0 mm 3 mps 739 mmHg 81%
    01:00 -4°C° 0 mm 4 mps 738 mmHg 86%
    02:00 -4°C° 0 mm 4 mps 738 mmHg 90%
    03:00 -4°C° 0 mm 4 mps 737 mmHg 89%
    04:00 -5°C° 0 mm 5 mps 736 mmHg 87%
    05:00 -4°C° 0 mm 5 mps 735 mmHg 86%
    06:00 -4°C° 0.2 mm 5 mps 734 mmHg 89%
    07:00 -4°C° 0.2 mm 5 mps 733 mmHg 92%
    08:00 -4°C° 0.2 mm 5 mps 733 mmHg 95%
    09:00 -2°C° 0.2 mm 4 mps 732 mmHg 95%
    10:00 -1°C° 0.2 mm 4 mps 731 mmHg 96%
    11:00 0°C° 0.2 mm 4 mps 731 mmHg 96%
    12:00 0°C° 0.1 mm 4 mps 731 mmHg 94%
    13:00 +1°C° 0.1 mm 5 mps 730 mmHg 93%
    14:00 +1°C° 0.1 mm 5 mps 730 mmHg 91%
    15:00 +1°C° 0.1 mm 5 mps 730 mmHg 91%
    16:00 +1°C° 0.1 mm 5 mps 729 mmHg 92%
    17:00 +1°C° 0.1 mm 6 mps 729 mmHg 92%
    18:00 0°C° 0.4 mm 5 mps 729 mmHg 93%
    19:00 0°C° 0.4 mm 4 mps 730 mmHg 95%
    20:00 -1°C° 0.4 mm 4 mps 730 mmHg 96%
    21:00 -1°C° 0.3 mm 4 mps 730 mmHg 95%
    22:00 0°C° 0.3 mm 3 mps 730 mmHg 95%
    23:00 -1°C° 0.3 mm 3 mps 730 mmHg 94%

    Day after tomorrow, 25 January, Saturday

    Time Temperature Precipitation Wind Pressure Humidity
    00:00 -1°C° 0.1 mm 3 mps 730 mmHg 94%
    01:00 -1°C° 0.1 mm 3 mps 730 mmHg 93%
    02:00 -3°C° 0.1 mm 4 mps 730 mmHg 93%
    03:00 -2°C° 0 mm 4 mps 730 mmHg 91%
    04:00 -2°C° 0 mm 4 mps 730 mmHg 90%
    05:00 -2°C° 0 mm 4 mps 730 mmHg 89%
    06:00 -2°C° 0.1 mm 5 mps 729 mmHg 90%
    07:00 -2°C° 0.1 mm 5 mps 729 mmHg 91%
    08:00 -3°C° 0.1 mm 6 mps 729 mmHg 92%
    09:00 -3°C° 0.2 mm 6 mps 729 mmHg 85%
    10:00 -3°C° 0.2 mm 7 mps 729 mmHg 79%
    11:00 -2°C° 0.2 mm 7 mps 729 mmHg 73%
    12:00 -3°C° 0.4 mm 7 mps 729 mmHg 71%
    13:00 -3°C° 0.4 mm 7 mps 729 mmHg 69%
    14:00 -3°C° 0.4 mm 7 mps 729 mmHg 68%
    15:00 -3°C° 0.1 mm 7 mps 729 mmHg 68%
    16:00 -4°C° 0.1 mm 6 mps 730 mmHg 68%
    17:00 -4°C° 0.1 mm 6 mps 730 mmHg 68%
    18:00 -4°C° 0 mm 6 mps 731 mmHg 69%
    19:00 -5°C° 0 mm 6 mps 731 mmHg 70%
    20:00 -5°C° 0 mm 6 mps 732 mmHg 71%
    21:00 -5°C° 0 mm 6 mps 733 mmHg 73%
    22:00 -5°C° 0 mm 6 mps 733 mmHg 76%
    23:00 -5°C° 0 mm 6 mps 734 mmHg 78%

    26 January, Sunday

    Time Temperature Precipitation Wind Pressure Humidity
    00:00 -5°C° 0 mm 6 mps 735 mmHg 77%
    01:00 -5°C° 0 mm 6 mps 736 mmHg 77%
    02:00 -5°C° 0 mm 6 mps 736 mmHg 76%
    03:00 -5°C° 0 mm 5 mps 737 mmHg 76%
    04:00 -5°C° 0 mm 5 mps 737 mmHg 76%
    05:00 -6°C° 0 mm 5 mps 738 mmHg 76%
    06:00 -6°C° 0 mm 5 mps 739 mmHg 76%
    07:00 -6°C° 0 mm 5 mps 740 mmHg 76%
    08:00 -5°C° 0 mm 4 mps 740 mmHg 76%
    09:00 -5°C° 0 mm 4 mps 741 mmHg 75%
    10:00 -4°C° 0 mm 4 mps 742 mmHg 73%
    11:00 -4°C° 0 mm 4 mps 743 mmHg 71%
    12:00 -4°C° 0 mm 3 mps 743 mmHg 71%
    13:00 -4°C° 0 mm 3 mps 744 mmHg 70%
    14:00 -2°C° 0 mm 2 mps 744 mmHg 69%
    15:00 -3°C° 0 mm 2 mps 744 mmHg 73%
    16:00 -3°C° 0 mm 2 mps 744 mmHg 76%
    17:00 -2°C° 0 mm 1 mps 744 mmHg 80%
    18:00 -3°C° 0 mm 2 mps 744 mmHg 80%
    19:00 -3°C° 0 mm 2 mps 744 mmHg 80%
    20:00 -3°C° 0 mm 2 mps 744 mmHg 81%
    21:00 -2°C° 0 mm 3 mps 744 mmHg 79%
    22:00 -2°C° 0 mm 3 mps 743 mmHg 77%
    23:00 -3°C° 0 mm 4 mps 743 mmHg 76%

    27 January, Monday

    Time Temperature Precipitation Wind Pressure Humidity
    00:00 -3°C° 0.1 mm 4 mps 743 mmHg 79%
    01:00 -3°C° 0.1 mm 4 mps 742 mmHg 83%
    02:00 -2°C° 0.1 mm 4 mps 742 mmHg 86%
    03:00 -2°C° 0.1 mm 4 mps 742 mmHg 87%
    04:00 -2°C° 0.1 mm 4 mps 741 mmHg 87%
    05:00 -2°C° 0.1 mm 4 mps 741 mmHg 88%
    06:00 -2°C° 0 mm 4 mps 741 mmHg 88%
    07:00 -2°C° 0 mm 4 mps 741 mmHg 88%
    08:00 -2°C° 0 mm 4 mps 741 mmHg 89%
    09:00 -2°C° 0 mm 4 mps 741 mmHg 87%
    10:00 -2°C° 0 mm 4 mps 741 mmHg 86%
    11:00 -1°C° 0 mm 4 mps 741 mmHg 85%
    12:00 -2°C° 0 mm 4 mps 740 mmHg 84%
    13:00 -2°C° 0 mm 4 mps 740 mmHg 83%
    14:00 -2°C° 0 mm 4 mps 739 mmHg 83%
    15:00 -1°C° 0 mm 3 mps 739 mmHg 85%
    16:00 -1°C° 0 mm 3 mps 739 mmHg 87%
    17:00 -1°C° 0 mm 3 mps 738 mmHg 89%
    18:00 -1°C° 0.2 mm 3 mps 738 mmHg 92%
    19:00 -1°C° 0.2 mm 3 mps 737 mmHg 95%
    20:00 -1°C° 0.2 mm 3 mps 737 mmHg 97%
    21:00 -1°C° 0.2 mm 3 mps 736 mmHg 97%
    22:00 -1°C° 0.2 mm 3 mps 736 mmHg 97%
    23:00 -1°C° 0.2 mm 3 mps 735 mmHg 97%

    28 January, Tuesday

    Time Temperature Precipitation Wind Pressure Humidity
    00:00 -1°C° 0.3 mm 3 mps 735 mmHg 97%
    01:00 -1°C° 0.3 mm 3 mps 735 mmHg 97%
    02:00 -1°C° 0.3 mm 3 mps 734 mmHg 97%
    03:00 -1°C° 0.1 mm 3 mps 734 mmHg 97%
    04:00 -1°C° 0.1 mm 3 mps 734 mmHg 96%
    05:00 -1°C° 0.1 mm 3 mps 733 mmHg 96%
    06:00 0°C° 0 mm 3 mps 733 mmHg 96%
    07:00 0°C° 0 mm 3 mps 733 mmHg 97%
    08:00 0°C° 0 mm 3 mps 733 mmHg 97%
    09:00 0°C° 0.1 mm 3 mps 733 mmHg 97%
    10:00 +1°C° 0.1 mm 3 mps 733 mmHg 97%
    11:00 0°C° 0.1 mm 4 mps 733 mmHg 96%
    12:00 0°C° 0 mm 4 mps 733 mmHg 93%
    13:00 0°C° 0 mm 4 mps 733 mmHg 90%
    14:00 0°C° 0 mm 4 mps 732 mmHg 86%
    15:00 0°C° 0 mm 4 mps 732 mmHg 87%
    16:00 0°C° 0 mm 4 mps 731 mmHg 87%
    17:00 -1°C° 0 mm 4 mps 731 mmHg 88%
    18:00 -1°C° 0.2 mm 5 mps 730 mmHg 91%
    19:00 -2°C° 0.2 mm 6 mps 729 mmHg 93%
    20:00 -1°C° 0.2 mm 7 mps 728 mmHg 96%
    21:00 -1°C° 0.8 mm 7 mps 727 mmHg 96%
    22:00 -1°C° 0.8 mm 7 mps 727 mmHg 96%
    23:00 0°C° 0.8 mm 7 mps 726 mmHg 96%
    Show more